O3B FM6 (40081 NORAD) Tracking and Keplerian Element Data

This shows tracking and keplerian element data for the satellite.

Feedback or suggestion? Click here.




ElementValue
Catalog40081
NameO3B FM6
Epoch Orbit18078
Epoch Day158.68430732
Epoch Year2024
RAAN357.4237
Inclination0.0537
Eccentricity0.0002624
Argument of Perigee78.8658
Mean Anonmoly283.739
Mean Motion5.00115382
Decay Rate-2.4E-07
L11 40081U 14038C 24158.68430732 -.00000024 00000+0 00000+0 0 9997
L22 40081 0.0537 357.4237 0002624 78.8658 283.7390 5.00115382180788



Live tracking and technical data element details for O3B FM6 (NORAD 40081). O3B FM6 can be tracked NOW for your location showing map with azimuth and elevation plus other details from your city location.







IsCatalogInMostPopularTable: catalog: 40081, numindb: 609
Update: records affected: 1



GetName: 40081 O3B FM6

Hit Count: updated at: Mon, 17 Jun 2024 23:23:47 GMT